Time,TemperatureF,DewpointF,PressureIn,WindDirection,WindDirectionDegrees,WindSpeedMPH,WindSpeedGustMPH,Humidity,HourlyPrecipIn,Conditions,Clouds,dailyrainin,SoftwareType,DateUTC
2013-10-06 00:05:00,47.8,37.4,29.51,South,180,2.7,-999.0,67,-99.99,,,0.00,Acu-Link.com,2013-10-06 05:05:00,
2013-10-06 00:21:00,47.8,36.6,29.51,NNW,337,3.2,-999.0,65,-99.99,,,0.00,Acu-Link.com,2013-10-06 05:21:00,
2013-10-06 00:36:00,47.8,37.0,29.50,South,180,1.7,-999.0,66,-99.99,,,0.00,Acu-Link.com,2013-10-06 05:36:00,
2013-10-06 00:52:00,47.8,37.4,29.51,SSW,202,3.2,-999.0,67,-99.99,,,0.00,Acu-Link.com,2013-10-06 05:52:00,
2013-10-06 01:08:00,47.8,37.0,29.51,WSW,247,3.7,-999.0,66,-99.99,,,0.00,Acu-Link.com,2013-10-06 06:08:00,
2013-10-06 01:23:00,47.7,36.9,29.51,SW,225,2.2,-999.0,66,-99.99,,,0.00,Acu-Link.com,2013-10-06 06:23:00,
2013-10-06 01:41:00,47.5,36.3,29.50,South,180,1.1,-999.0,65,-99.99,,,0.00,Acu-Link.com,2013-10-06 06:41:00,
2013-10-06 01:56:00,47.3,36.5,29.50,South,180,2.7,-999.0,66,-99.99,,,0.00,Acu-Link.com,2013-10-06 06:56:00,
2013-10-06 02:11:00,47.1,36.7,29.50,South,180,1.1,-999.0,67,-99.99,,,0.00,Acu-Link.com,2013-10-06 07:11:00,
2013-10-06 02:26:00,46.9,36.5,29.50,SSW,202,2.2,-999.0,67,-99.99,,,0.00,Acu-Link.com,2013-10-06 07:26:00,
2013-10-06 02:41:00,46.8,37.2,29.50,South,180,1.1,-999.0,69,-99.99,,,0.00,Acu-Link.com,2013-10-06 07:41:00,
2013-10-06 02:57:00,46.8,37.2,29.50,SSW,202,1.7,-999.0,69,-99.99,,,0.00,Acu-Link.com,2013-10-06 07:57:00,
2013-10-06 03:12:00,46.6,37.0,29.50,SSW,202,1.1,-999.0,69,-99.99,,,0.00,Acu-Link.com,2013-10-06 08:12:00,
2013-10-06 03:28:00,46.6,37.0,29.49,North,0,0.0,-999.0,69,-99.99,,,0.00,Acu-Link.com,2013-10-06 08:28:00,
2013-10-06 03:43:00,46.6,37.0,29.48,SSE,157,2.2,-999.0,69,-99.99,,,0.00,Acu-Link.com,2013-10-06 08:43:00,
2013-10-06 03:58:00,46.2,36.2,29.48,West,270,3.7,-999.0,68,-99.99,,,0.00,Acu-Link.com,2013-10-06 08:58:00,
2013-10-06 04:14:00,46.0,36.8,29.49,ENE,67,2.7,-999.0,70,-99.99,,,0.00,Acu-Link.com,2013-10-06 09:14:00,
2013-10-06 04:29:00,45.5,37.4,29.49,North,0,1.7,-999.0,73,-99.99,,,0.00,Acu-Link.com,2013-10-06 09:29:00,
2013-10-06 04:44:00,45.1,37.0,29.49,SW,225,2.7,-999.0,73,-99.99,,,0.00,Acu-Link.com,2013-10-06 09:44:00,
2013-10-06 04:59:00,44.8,36.7,29.48,NNW,337,1.7,-999.0,73,-99.99,,,0.00,Acu-Link.com,2013-10-06 09:59:00,
2013-10-06 05:14:00,44.2,37.1,29.48,ESE,112,1.1,-999.0,76,-99.99,,,0.00,Acu-Link.com,2013-10-06 10:14:00,
2013-10-06 05:29:00,44.2,37.8,29.47,NNW,337,1.1,-999.0,78,-99.99,,,0.00,Acu-Link.com,2013-10-06 10:29:00,
2013-10-06 05:45:00,44.1,38.0,29.48,NNW,337,0.0,-999.0,79,-99.99,,,0.00,Acu-Link.com,2013-10-06 10:45:00,
2013-10-06 06:00:00,44.1,38.0,29.48,NNW,337,0.0,-999.0,79,-99.99,,,0.00,Acu-Link.com,2013-10-06 11:00:00,
2013-10-06 06:15:00,44.1,38.3,29.49,NNW,337,0.0,-999.0,80,-99.99,,,0.00,Acu-Link.com,2013-10-06 11:15:00,
2013-10-06 06:30:00,43.9,38.1,29.49,NNW,337,0.0,-999.0,80,-99.99,,,0.00,Acu-Link.com,2013-10-06 11:30:00,
2013-10-06 06:45:00,43.9,38.8,29.50,NNW,337,1.7,-999.0,82,-99.99,,,0.00,Acu-Link.com,2013-10-06 11:45:00,
2013-10-06 07:01:00,43.7,39.2,29.50,NNW,337,0.0,-999.0,84,-99.99,,,0.00,Acu-Link.com,2013-10-06 12:01:00,
2013-10-06 07:16:00,43.5,38.7,29.50,WNW,292,1.1,-999.0,83,-99.99,,,0.00,Acu-Link.com,2013-10-06 12:16:00,
2013-10-06 07:31:00,43.5,39.3,29.50,North,0,0.0,-999.0,85,-99.99,,,0.00,Acu-Link.com,2013-10-06 12:31:00,
2013-10-06 07:46:00,43.2,39.9,29.51,SE,135,1.1,-999.0,88,-99.99,,,0.00,Acu-Link.com,2013-10-06 12:46:00,
2013-10-06 08:01:00,43.2,40.2,29.50,SSE,157,0.0,-999.0,89,-99.99,,,0.00,Acu-Link.com,2013-10-06 13:01:00,
2013-10-06 08:17:00,43.5,40.2,29.50,North,0,1.7,-999.0,88,-99.99,,,0.00,Acu-Link.com,2013-10-06 13:17:00,
2013-10-06 08:32:00,43.2,39.6,29.50,NNW,337,1.7,-999.0,87,-99.99,,,0.00,Acu-Link.com,2013-10-06 13:32:00,
2013-10-06 08:47:00,43.3,39.7,29.50,NNW,337,0.0,-999.0,87,-99.99,,,0.00,Acu-Link.com,2013-10-06 13:47:00,
2013-10-06 09:02:00,44.4,40.2,29.50,NNW,337,1.7,-999.0,85,-99.99,,,0.00,Acu-Link.com,2013-10-06 14:02:00,
2013-10-06 09:18:00,45.0,40.2,29.49,WNW,292,1.7,-999.0,83,-99.99,,,0.00,Acu-Link.com,2013-10-06 14:18:00,
2013-10-06 09:33:00,45.1,40.6,29.49,North,0,1.1,-999.0,84,-99.99,,,0.00,Acu-Link.com,2013-10-06 14:33:00,
2013-10-06 09:48:00,46.0,40.8,29.50,NNW,337,1.1,-999.0,82,-99.99,,,0.00,Acu-Link.com,2013-10-06 14:48:00,
2013-10-06 10:03:00,47.7,41.2,29.50,WNW,292,3.2,-999.0,78,-99.99,,,0.00,Acu-Link.com,2013-10-06 15:03:00,
2013-10-06 10:19:00,47.7,40.5,29.50,North,0,1.1,-999.0,76,-99.99,,,0.00,Acu-Link.com,2013-10-06 15:19:00,
2013-10-06 10:34:00,47.1,40.6,29.51,North,0,2.2,-999.0,78,-99.99,,,0.00,Acu-Link.com,2013-10-06 15:34:00,
2013-10-06 10:49:00,46.9,40.4,29.51,North,0,1.7,-999.0,78,-99.99,,,0.00,Acu-Link.com,2013-10-06 15:49:00,
2013-10-06 11:04:00,46.6,40.4,29.52,SSE,157,2.7,-999.0,79,-99.99,,,0.00,Acu-Link.com,2013-10-06 16:04:00,
2013-10-06 11:19:00,46.9,40.7,29.52,North,0,0.0,-999.0,79,-99.99,,,0.00,Acu-Link.com,2013-10-06 16:19:00,
2013-10-06 11:35:00,47.1,40.9,29.52,South,180,1.7,-999.0,79,-99.99,,,0.00,Acu-Link.com,2013-10-06 16:35:00,
2013-10-06 11:50:00,47.3,40.5,29.52,ESE,112,0.0,-999.0,77,-99.99,,,0.00,Acu-Link.com,2013-10-06 16:50:00,
2013-10-06 12:05:00,47.3,41.1,29.51,NNW,337,2.2,-999.0,79,-99.99,,,0.00,Acu-Link.com,2013-10-06 17:05:00,
2013-10-06 12:20:00,48.4,41.2,29.51,WSW,247,1.7,-999.0,76,-99.99,,,0.00,Acu-Link.com,2013-10-06 17:20:00,
2013-10-06 12:36:00,49.3,41.0,29.51,North,0,1.7,-999.0,73,-99.99,,,0.00,Acu-Link.com,2013-10-06 17:36:00,
2013-10-06 12:51:00,49.3,41.7,29.50,North,0,1.7,-999.0,75,-99.99,,,0.00,Acu-Link.com,2013-10-06 17:51:00,
2013-10-06 13:06:00,48.9,41.7,29.50,NNE,22,1.7,-999.0,76,-99.99,,,0.00,Acu-Link.com,2013-10-06 18:06:00,
2013-10-06 13:21:00,49.5,41.6,29.50,East,90,2.7,-999.0,74,-99.99,,,0.00,Acu-Link.com,2013-10-06 18:21:00,
2013-10-06 13:37:00,49.1,41.2,29.50,West,270,2.7,-999.0,74,-99.99,,,0.00,Acu-Link.com,2013-10-06 18:37:00,
2013-10-06 13:52:00,49.3,41.4,29.49,SSW,202,7.8,-999.0,74,-99.99,,,0.00,Acu-Link.com,2013-10-06 18:52:00,
2013-10-06 14:07:00,49.5,41.9,29.49,North,0,1.7,-999.0,75,-99.99,,,0.00,Acu-Link.com,2013-10-06 19:07:00,
2013-10-06 14:22:00,49.5,42.9,29.49,South,180,1.7,-999.0,78,-99.99,,,0.00,Acu-Link.com,2013-10-06 19:22:00,
2013-10-06 14:38:00,49.1,43.8,29.49,North,0,0.0,-999.0,82,-99.99,,,0.00,Acu-Link.com,2013-10-06 19:38:00,
2013-10-06 14:53:00,48.9,44.0,29.49,NNE,22,1.1,-999.0,83,-99.99,,,0.00,Acu-Link.com,2013-10-06 19:53:00,
2013-10-06 15:08:00,48.9,44.6,29.48,SW,225,1.1,-999.0,85,-99.99,,,0.00,Acu-Link.com,2013-10-06 20:08:00,
2013-10-06 15:23:00,48.2,44.5,29.49,North,0,1.7,-999.0,87,-99.99,,,0.00,Acu-Link.com,2013-10-06 20:23:00,
2013-10-06 15:39:00,48.2,45.7,29.49,South,180,0.0,-999.0,91,-99.99,,,0.00,Acu-Link.com,2013-10-06 20:39:00,
2013-10-06 15:54:00,48.2,46.0,29.48,South,180,2.2,-999.0,92,-99.99,,,0.01,Acu-Link.com,2013-10-06 20:54:00,
2013-10-06 16:09:00,48.2,46.3,29.49,SE,135,0.0,-999.0,93,-99.99,,,0.01,Acu-Link.com,2013-10-06 21:09:00,
2013-10-06 16:24:00,48.2,46.6,29.49,SSW,202,0.0,-999.0,94,-99.99,,,0.01,Acu-Link.com,2013-10-06 21:24:00,
2013-10-06 16:39:00,48.2,46.8,29.49,North,0,1.1,-999.0,95,-99.99,,,0.01,Acu-Link.com,2013-10-06 21:39:00,
2013-10-06 16:55:00,48.2,46.8,29.50,West,270,0.0,-999.0,95,-99.99,,,0.02,Acu-Link.com,2013-10-06 21:55:00,
2013-10-06 17:10:00,48.4,47.0,29.50,WSW,247,1.7,-999.0,95,-99.99,,,0.02,Acu-Link.com,2013-10-06 22:10:00,
2013-10-06 17:25:00,48.2,46.8,29.51,North,0,1.1,-999.0,95,-99.99,,,0.02,Acu-Link.com,2013-10-06 22:25:00,
2013-10-06 17:40:00,48.4,47.3,29.52,North,0,2.2,-999.0,96,-99.99,,,0.02,Acu-Link.com,2013-10-06 22:40:00,
2013-10-06 17:56:00,48.4,47.3,29.53,NNW,337,0.0,-999.0,96,-99.99,,,0.02,Acu-Link.com,2013-10-06 22:56:00,
2013-10-06 18:11:00,48.0,46.6,29.53,North,0,0.0,-999.0,95,-99.99,,,0.03,Acu-Link.com,2013-10-06 23:11:00,
2013-10-06 18:26:00,47.8,46.7,29.54,North,0,0.0,-999.0,96,-99.99,,,0.04,Acu-Link.com,2013-10-06 23:26:00,
2013-10-06 18:41:00,47.7,46.9,29.54,North,0,0.0,-999.0,97,-99.99,,,0.04,Acu-Link.com,2013-10-06 23:41:00,
2013-10-06 18:57:00,47.5,47.0,29.55,North,0,0.0,-999.0,98,-99.99,,,0.04,Acu-Link.com,2013-10-06 23:57:00,
2013-10-06 19:12:00,47.3,46.8,29.56,North,0,0.0,-999.0,98,-99.99,,,0.04,Acu-Link.com,2013-10-07 00:12:00,
2013-10-06 19:27:00,47.3,47.0,29.56,SSW,202,0.0,-999.0,99,-99.99,,,0.05,Acu-Link.com,2013-10-07 00:27:00,
2013-10-06 19:42:00,47.3,47.0,29.56,North,0,1.7,-999.0,99,-99.99,,,0.06,Acu-Link.com,2013-10-07 00:42:00,
2013-10-06 19:57:00,47.1,46.8,29.57,SSE,157,0.0,-999.0,99,-99.99,,,0.06,Acu-Link.com,2013-10-07 00:57:00,
2013-10-06 20:13:00,47.1,46.8,29.58,North,0,0.0,-999.0,99,-99.99,,,0.06,Acu-Link.com,2013-10-07 01:13:00,
2013-10-06 20:28:00,47.1,46.8,29.58,North,0,0.0,-999.0,99,-99.99,,,0.06,Acu-Link.com,2013-10-07 01:28:00,
2013-10-06 20:43:00,47.3,47.0,29.58,North,0,1.7,-999.0,99,-99.99,,,0.06,Acu-Link.com,2013-10-07 01:43:00,
2013-10-06 20:59:00,47.7,47.4,29.59,NW,315,5.8,-999.0,99,-99.99,,,0.06,Acu-Link.com,2013-10-07 01:59:00,
2013-10-06 21:14:00,47.8,47.5,29.59,WNW,292,5.3,-999.0,99,-99.99,,,0.07,Acu-Link.com,2013-10-07 02:14:00,
2013-10-06 21:29:00,48.2,47.9,29.59,WNW,292,2.7,-999.0,99,-99.99,,,0.07,Acu-Link.com,2013-10-07 02:29:00,
2013-10-06 21:45:00,48.2,47.9,29.60,NNW,337,2.7,-999.0,99,-99.99,,,0.07,Acu-Link.com,2013-10-07 02:45:00,
2013-10-06 22:00:00,48.2,47.4,29.61,NNW,337,2.2,-999.0,97,-99.99,,,0.07,Acu-Link.com,2013-10-07 03:00:00,
2013-10-06 22:15:00,48.4,47.6,29.61,WSW,247,1.7,-999.0,97,-99.99,,,0.07,Acu-Link.com,2013-10-07 03:15:00,
2013-10-06 22:30:00,48.4,47.6,29.61,NNW,337,1.7,-999.0,97,-99.99,,,0.07,Acu-Link.com,2013-10-07 03:30:00,
2013-10-06 22:45:00,48.6,47.8,29.62,WNW,292,6.3,-999.0,97,-99.99,,,0.07,Acu-Link.com,2013-10-07 03:45:00,
2013-10-06 23:00:00,48.6,47.8,29.62,West,270,1.1,-999.0,97,-99.99,,,0.07,Acu-Link.com,2013-10-07 04:00:00,
2013-10-06 23:16:00,48.7,47.9,29.62,North,0,2.2,-999.0,97,-99.99,,,0.07,Acu-Link.com,2013-10-07 04:16:00,
2013-10-06 23:31:00,48.7,47.9,29.62,North,0,3.2,-999.0,97,-99.99,,,0.07,Acu-Link.com,2013-10-07 04:31:00,
2013-10-06 23:46:00,48.7,47.9,29.63,North,0,3.7,-999.0,97,-99.99,,,0.07,Acu-Link.com,2013-10-07 04:46:00,